Weather History for KBPC - February, 2014

Change the Weather History Date:

Monday, February 17, 2014

  Actual Average (KBGD) Record (KBGD)
Temperature  
Mean Temperature 50 °F 42 °F  
Max Temperature 62 °F 55 °F 85 °F (1970)
Min Temperature 39 °F 30 °F 4 °F (1993)
Degree Days  
Heating Degree Days 14 23  
Month to date heating degree days 406  
Since 1 July heating degree days 2758  
Cooling Degree Days 0 0  
Month to date cooling degree days 0  
Year to date cooling degree days 0  
Moisture  
Dew Point 18 °F    
Average Humidity 30    
Maximum Humidity 61    
Minimum Humidity 14    
Precipitation  
Precipitation 0.00 in 0.02 in 0.58 in (1969)
Month to date precipitation 0.41  
Year to date precipitation 1.00  
Snow  
Snow 0.00 in - 6.00 in (1969)
Month to date snowfall  
Since 1 July snowfall  
Snow Depth -    
Sea Level Pressure  
Sea Level Pressure 30.10 in    
Wind  
Wind Speed 11 mph (North)    
Max Wind Speed 22 mph    
Max Gust Speed 25 mph    
Visibility 10 miles    
Events      
T = Trace of Precipitation, MM = Missing Value Source: NWS Daily Summary

Daily Weather History Graph

Daily Weather History Graph

Search for Another Location

Airport or City:

Trip Planner

Search our weather history database for the weather conditions in past years. The results will help you decide how hot, cold, wet, or windy it might be!

Date:

Astronomy

Feb. 17, 2014 Rise Set
Actual Time 7:28 AM CST 6:27 PM CST
Civil Twilight 7:02 AM CST 6:53 PM CST
Nautical Twilight 6:32 AM CST 7:23 PM CST
Astronomical Twilight 6:03 AM CST 7:53 PM CST
Moon 9:16 PM CST (2/17) 8:36 AM CST (2/17)
Length of Visible Light 11h 51m
Length of Day
10h 58m
Waning Gibbous, 93% of the Moon is Illuminated
Feb 17
Waning Gibbous
Feb 22
Last Quarter
Mar 1
New
Mar 8
First Quarter
Mar 16
Full

Hourly Weather History & Observations

Time (CST) Temp. Windchill Dew Point Humidity Pressure Visibility Wind Dir Wind Speed Gust Speed Precip Events Conditions
12:15 AM 59.0 °F - 21.2 °F 23% 29.81 in 10.0 mi WSW 13.8 mph - N/A   Clear
12:35 AM 59.0 °F - 21.2 °F 23% 29.81 in 10.0 mi WSW 15.0 mph - N/A   Clear
12:55 AM 57.2 °F - 21.2 °F 25% 29.82 in 10.0 mi SW 13.8 mph - N/A   Clear
1:15 AM 57.2 °F - 21.2 °F 25% 29.83 in 10.0 mi WSW 13.8 mph - N/A   Clear
1:35 AM 55.4 °F - 23.0 °F 29% 29.84 in 10.0 mi WSW 11.5 mph - N/A   Clear
1:55 AM 57.2 °F - 23.0 °F 27% 29.86 in 10.0 mi West 16.1 mph - N/A   Clear
2:15 AM 62.6 °F - 21.2 °F 20% 29.88 in 10.0 mi West 20.7 mph 24.2 mph N/A   Clear
2:35 AM 59.0 °F - 23.0 °F 25% 29.94 in 10.0 mi North 21.9 mph - N/A   Clear
2:55 AM 53.6 °F - 26.6 °F 35% 29.96 in 10.0 mi North 11.5 mph 16.1 mph N/A   Clear
3:15 AM 51.8 °F - 28.4 °F 41% 29.98 in 10.0 mi North 6.9 mph - N/A   Clear
3:35 AM 50.0 °F - 28.4 °F 43% 30.01 in 10.0 mi North 6.9 mph - N/A   Clear
3:55 AM 50.0 °F - 28.4 °F 43% 30.03 in 10.0 mi North 9.2 mph - N/A   Clear
4:15 AM 50.0 °F - 28.4 °F 43% 30.04 in 10.0 mi North 5.8 mph 19.6 mph N/A   Clear
4:35 AM 46.4 °F 41.5 °F 28.4 °F 50% 30.06 in 10.0 mi North 10.4 mph - N/A   Clear
4:55 AM 46.4 °F 41.9 °F 28.4 °F 50% 30.07 in 10.0 mi North 9.2 mph - N/A   Clear
5:15 AM 44.6 °F 40.2 °F 28.4 °F 53% 30.09 in 10.0 mi North 8.1 mph - N/A   Clear
5:35 AM 44.6 °F 40.2 °F 28.4 °F 53% 30.10 in 10.0 mi North 8.1 mph - N/A   Clear
5:55 AM 44.6 °F 38.1 °F 28.4 °F 53% 30.12 in 10.0 mi North 13.8 mph - N/A   Clear
6:15 AM 44.6 °F 38.8 °F 26.6 °F 49% 30.13 in 10.0 mi North 11.5 mph - N/A   Clear
6:35 AM 44.6 °F 39.2 °F 26.6 °F 49% 30.14 in 10.0 mi North 10.4 mph 18.4 mph N/A   Clear
6:55 AM 42.8 °F 38.0 °F 26.6 °F 53% 30.15 in 10.0 mi North 8.1 mph - N/A   Clear
7:15 AM 41.0 °F 36.4 °F 26.6 °F 57% 30.16 in 10.0 mi North 6.9 mph - N/A   Clear
7:35 AM 39.2 °F 35.0 °F 26.6 °F 61% 30.17 in 10.0 mi NNE 5.8 mph - N/A   Clear
7:55 AM 39.2 °F 35.9 °F 26.6 °F 61% 30.18 in 10.0 mi NNE 4.6 mph - N/A   Clear
8:15 AM 39.2 °F 35.0 °F 26.6 °F 61% 30.19 in 10.0 mi North 5.8 mph - N/A   Clear
8:35 AM 42.8 °F 39.3 °F 26.6 °F 53% 30.19 in 10.0 mi North 5.8 mph - N/A   Clear
8:55 AM 44.6 °F 40.2 °F 24.8 °F 46% 30.20 in 10.0 mi North 8.1 mph - N/A   Clear
9:15 AM 46.4 °F 42.4 °F 21.2 °F 37% 30.21 in 10.0 mi North 8.1 mph - N/A   Clear
9:35 AM 46.4 °F 40.4 °F 21.2 °F 37% 30.21 in 10.0 mi NNE 13.8 mph 18.4 mph N/A   Clear
9:55 AM 48.2 °F - 19.4 °F 32% 30.21 in 10.0 mi North 8.1 mph - N/A   Clear
10:15 AM 50.0 °F - 19.4 °F 30% 30.21 in 10.0 mi North 15.0 mph - N/A   Clear
10:35 AM 51.8 °F - 17.6 °F 26% 30.21 in 10.0 mi North 17.3 mph - N/A   Clear
10:55 AM 51.8 °F - 17.6 °F 26% 30.21 in 10.0 mi North 13.8 mph - N/A   Clear
11:15 AM 53.6 °F - 17.6 °F 24% 30.22 in 10.0 mi NNE 15.0 mph - N/A   Clear
11:35 AM 53.6 °F - 15.8 °F 22% 30.21 in 10.0 mi NNE 13.8 mph 18.4 mph N/A   Clear
11:55 AM 55.4 °F - 14.0 °F 20% 30.22 in 10.0 mi NNE 10.4 mph - N/A   Clear
12:15 PM 55.4 °F - 14.0 °F 20% 30.22 in 10.0 mi North 8.1 mph 18.4 mph N/A   Clear
12:35 PM 55.4 °F - 12.2 °F 18% 30.21 in 10.0 mi North 5.8 mph - N/A   Clear
12:55 PM 55.4 °F - 12.2 °F 18% 30.20 in 10.0 mi NE 3.5 mph - N/A   Clear
1:15 PM 57.2 °F - 12.2 °F 17% 30.19 in 10.0 mi East 4.6 mph - N/A   Clear
1:35 PM 57.2 °F - 12.2 °F 17% 30.18 in 10.0 mi NNE 5.8 mph - N/A   Clear
1:55 PM 57.2 °F - 12.2 °F 17% 30.17 in 10.0 mi Calm Calm - N/A   Clear
2:15 PM 59.0 °F - 12.2 °F 16% 30.17 in 10.0 mi NNE 4.6 mph - N/A   Clear
2:35 PM 59.0 °F - 10.4 °F 15% 30.16 in 10.0 mi NE 4.6 mph - N/A   Clear
2:55 PM 59.0 °F - 12.2 °F 16% 30.15 in 10.0 mi Calm Calm - N/A   Clear
3:15 PM 60.8 °F - 12.2 °F 15% 30.14 in 10.0 mi Calm Calm - N/A   Clear
3:35 PM 60.8 °F - 10.4 °F 14% 30.14 in 10.0 mi Calm Calm - N/A   Clear
3:55 PM 60.8 °F - 10.4 °F 14% 30.14 in 10.0 mi South 4.6 mph - N/A   Clear
4:15 PM 60.8 °F - 10.4 °F 14% 30.14 in 10.0 mi SSW 5.8 mph - N/A   Clear
4:35 PM 60.8 °F - 12.2 °F 15% 30.13 in 10.0 mi SSE 9.2 mph - N/A   Clear
4:55 PM 60.8 °F - 10.4 °F 14% 30.13 in 10.0 mi South 8.1 mph - N/A   Clear
5:15 PM 60.8 °F - 10.4 °F 14% 30.12 in 10.0 mi SSE 8.1 mph - N/A   Clear
5:35 PM 60.8 °F - 10.4 °F 14% 30.12 in 10.0 mi SSE 6.9 mph - N/A   Clear
5:55 PM 59.0 °F - 10.4 °F 15% 30.12 in 10.0 mi South 8.1 mph - N/A   Clear
6:15 PM 53.6 °F - 10.4 °F 18% 30.11 in 10.0 mi SSE 8.1 mph - N/A   Clear
6:35 PM 50.0 °F - 12.2 °F 22% 30.11 in 10.0 mi SSE 9.2 mph - N/A   Clear
6:55 PM 46.4 °F 41.5 °F 14.0 °F 27% 30.12 in 10.0 mi South 10.4 mph - N/A   Clear
7:15 PM 44.6 °F 38.8 °F 14.0 °F 29% 30.12 in 10.0 mi South 11.5 mph - N/A   Clear
7:35 PM 46.4 °F 40.7 °F 14.0 °F 27% 30.12 in 10.0 mi South 12.7 mph - N/A   Clear
7:55 PM 44.6 °F 38.4 °F 14.0 °F 29% 30.11 in 10.0 mi South 12.7 mph - N/A   Clear
8:15 PM 46.4 °F 40.7 °F 12.2 °F 25% 30.11 in 10.0 mi South 12.7 mph - N/A   Clear
8:35 PM 46.4 °F 41.1 °F 12.2 °F 25% 30.11 in 10.0 mi South 11.5 mph - N/A   Clear
8:55 PM 48.2 °F - 10.4 °F 22% 30.11 in 10.0 mi South 15.0 mph - N/A   Clear
9:15 PM 48.2 °F - 10.4 °F 22% 30.10 in 10.0 mi South 15.0 mph - N/A   Clear
9:35 PM 44.6 °F 37.8 °F 12.2 °F 27% 30.10 in 10.0 mi South 15.0 mph 19.6 mph N/A   Clear
9:55 PM 48.2 °F - 12.2 °F 24% 30.09 in 10.0 mi South 17.3 mph - N/A   Clear
10:15 PM 48.2 °F - 12.2 °F 24% 30.09 in 10.0 mi South 17.3 mph - N/A   Clear
10:35 PM 50.0 °F - 12.2 °F 22% 30.07 in 10.0 mi South 18.4 mph 25.3 mph N/A   Clear
10:55 PM 48.2 °F - 12.2 °F 24% 30.07 in 10.0 mi South 15.0 mph 23.0 mph N/A   Clear
11:15 PM 46.4 °F 40.7 °F 12.2 °F 25% 30.07 in 10.0 mi SSW 12.7 mph - N/A   Clear
11:35 PM 46.4 °F 40.7 °F 12.2 °F 25% 30.05 in 10.0 mi SSW 12.7 mph - N/A   Clear
11:55 PM 44.6 °F 38.8 °F 12.2 °F 27% 30.05 in 10.0 mi SSW 11.5 mph - N/A   Clear